SPACEBEE-14 (46311 NORAD) Tracking and Keplerian Element Data

This shows tracking and keplerian element data for the satellite.

Feedback or suggestion? Click here.




ElementValue
Catalog46311
NameSPACEBEE-14
Epoch Orbit310
Epoch Day268.14211116
Epoch Year2020
RAAN340.9059
Inclination97.5182
Eccentricity0.0001617
Argument of Perigee126.9701
Mean Anonmoly233.1677
Mean Motion15.10671129
Decay Rate1.821E-05
L11 46311U 20061AR 20268.14211116 .00001821 00000-0 11386-3 0 9993
L22 46311 97.5182 340.9059 0001617 126.9701 233.1677 15.10671129 3106

Live tracking and technical data element details for SPACEBEE-14 (NORAD 46311). SPACEBEE-14 can be tracked NOW for your location showing map with azimuth and elevation plus other details from your city location.

Track the satellite on the map from your city or location and see movement details for azimuth, elevation, latitude, longitude, range, height, and movement on the map or in text.







IsCatalogInMostPopularTable: catalog: 46311, numindb: -1

Insert: records affected: 1


GetName: 46311 SPACEBEE-14

Hit Count: inserted at: Sat, 26 Sep 2020 14:14:15 GMT